DELTA 1 DEB, 7040

Orbit data source: Space-Track

DELTA 1 DEB, 7040 is space debris in SSO originally from a launch on Tue, 06 Nov 1973 UTC launched from the Air Force Western Test Range (AFWTR). Debris objects in space refer to the collection of defunct objects orbiting the Earth. Examples of debris include non-operational satellites, rocket bodies, and fragments generated from explosions, collisions, or faulty payload assembly.

Loading next visibility...
DELTA 1 DEB details
Identifier
7040, 1973-086AG
Orbit
SSO
Last TLE update1 day ago
Origin
Flag of USGSFC (US)
ManufacturerUnknown
MissionSpacecraft
Bus & MotorUnknown
MassUnknown
Launch date (UTC)
1973-11-06 (51 years ago)
Launch vehicleUnknown
Launch site
Air Force Western Test Range (AFWTR)
Object type
Payload
Rocket body
Debris
Shape & HBRUnknown
Radar Cross SectionSmall (<0.1 m²)

Expand to show TLE details & history

TLE from 1 day ago
0 DELTA 1 DEB
1 07040U 73086AG  24360.34439583  .00000220  00000-0  10742-2 0  9999
2 07040 102.5238 138.9387 0192838 105.3258 312.3597 12.82264748388168
Epoch: 2024-12-25T08:15Z
Definitive object data (Epoch: 2024-12-25T08:15:55.799Z)
Latitude54.15134°
Longitude-97.19487°
Altitude1,242.456 km
Speed7.285 km/s
True Right ascension08h 04m 30s
True Declination53° 59' 54"
Sunlit
Object was in full shadow at TLE epoch
Visualization TLE readout
Latitude6.73909°
Longitude103.35488°
Altitude1,280.706 km
Speed7.241 km/s
Apparent Right ascension21h 49m 41s
Apparent Declination-14° 21' 47"
Sunlit
Object is in daylight
Visualization observer readout
Local Sidereal Time10:25:27
Azimuth19.561° NNE
Elevation-63.272°
Doppler factor1
Orbital elements
Apogee altitude1,478.569 km
Perigee altitude1,181.288 km
Semi-major axis7,708.066 km
Eccentricity0.0192838
Inclination102.5238°
RAAN138.9387°
Arg. of periapsis105.3258°
True anomaly310.70014°
Mean anomaly312.3597°
Eccentric anomaly311.53261°
Mean motion3.20719 °/min
BSTAR0.0010742
Orbital period112.25 mins
Loading maneuver chart data...
Loading historical data...
Loading historical data...
Loading historical data...
Loading historical data...
Loading historical data...
Loading historical data...
Loading historical data...

DELTA 1 DEB Visibility forecast

Observer location: undefined°, undefined

Span
Click to sort rows by Start time (UTC) header in descending order
Start Az.
Max El. time (UTC)
Max El. Az.
Max El.
End time (UTC)
End Az.
13 mins2024-12-26 22:02:10.102Z29.207° NE2024-12-26 22:08:10.102Z96.403° ESE38.994°2024-12-26 22:15:10.102Z180.23° SSW
10 mins2024-12-26 23:54:10.102Z348.674° N2024-12-26 23:58:10.102Z303.914° NW26.253°2024-12-27 00:04:10.102Z245.665° WSW
4 mins2024-12-27 07:02:10.102Z63.446° ENE2024-12-27 07:04:10.102Z46.333° ENE12.448°2024-12-27 07:06:10.102Z29.257° NE
12 mins2024-12-27 08:47:10.102Z143.241° SSE2024-12-27 08:53:10.102Z56.814° ENE41.982°2024-12-27 08:59:10.102Z349.105° N
9 mins2024-12-27 10:39:10.102Z220.359° SW2024-12-27 10:43:10.102Z258.394° W22.068°2024-12-27 10:48:10.102Z307.984° NW
|